Location: Pinhead Observatory
(34.4473°N, 118.1985°W)
Time: 18:50:55
(UTC-07:00)

CZ-4C R/B - Visible Passes

Search period start: 31 August 2016 00:00
Search period end: 10 September 2016 00:00
Orbit: 737 x 1266 km, 63.4° (Epoch: 31 August)

Date Brightness Start Highest point End Pass type
(mag) Time Alt. Az. Time Alt. Az. Time Alt. Az.
31 Aug 4.7 02:43:44 14° NNW 02:43:44 14° NNW 02:45:17 10° N visible
01 Sep 5.0 01:30:59 13° NNE 01:30:59 13° NNE 01:31:38 10° NNE visible
02 Sep 4.9 02:03:22 13° N 02:03:22 13° N 02:04:18 10° N visible
04 Sep 5.1 01:22:55 11° N 01:22:55 11° N 01:23:14 10° N visible
09 Sep 5.2 06:01:40 10° N 06:06:33 19° NE 06:11:44 10° E visible
